This demonstration page uses our WeatherBlox Daily Observations layout. Learn more.

36.17497, -115.13722

Hourly Observations for June 17, 2018

Temp ( °F °C ) Dew Point ( °F °C ) Humidity (%) Winds ( mph kmh ) Pressure ( in mb ) Visibility ( mi km ) Precip ( " mm )
12:53 am 00:53 Clear 81 27.2 35 1.7 19 19 S 8 13 29.62 1003 10 16.09344 0 0
1:53 am 01:53 Clear 79 26.1 36 2.2 21 21 S 13 20 29.62 1003 10 16.09344 0 0
2:53 am 02:53 Clear 79 26.1 36 2.2 21 21 S 12 19 29.62 1003 10 16.09344 0 0
3:53 am 03:53 Clear 77 25 35 1.7 22 22 S 12 19 29.65 1004 10 16.09344 0 0
4:53 am 04:53 Clear 77 25 35 1.7 22 22 SSW 8 13 29.65 1004 10 16.09344 0 0
5:53 am 05:53 Sunny 75 23.9 35 1.7 23 23 S 10 17 29.68 1005 10 16.09344 0 0
6:53 am 06:53 Sunny 77 25 35 1.7 22 22 S 13 20 29.68 1005 10 16.09344 0 0
7:53 am 07:53 Sunny 79 26.1 33 0.6 19 19 S 17 28 29.68 1005 10 16.09344 0 0
8:53 am 08:53 Sunny 80 26.7 33 0.6 18 18 S 13 20 29.68 1005 10 16.09344 0 0
9:53 am 09:53 Sunny 82 27.8 32 0 16 16 S 14 22 29.68 1005 10 16.09344 0 0
10:53 am 10:53 Sunny 87 30.6 28 -2.2 12 12 SW 22 35 29.68 1005 10 16.09344 0 0
11:39 am 11:39 Sunny 88 31.1 27 -2.8 11 11 SW 24 39 29.53 1000 10 16.09344 0 0
11:53 am 11:53 Sunny 89 31.7 27 -2.8 11 11 SW 17 28 29.65 1004 10 16.09344 0 0
12:53 pm 12:53 Sunny 91 32.8 28 -2.2 10 10 SSW 22 35 29.65 1004 10 16.09344 0 0
1:53 pm 13:53 Sunny 92 33.3 27 -2.8 10 10 SW 18 30 29.62 1003 10 16.09344 0 0
2:07 pm 14:07 Sunny 93 33.9 17 -8.3 6 6 WSW 21 33 29.5 999 10 16.09344 0 0
2:53 pm 14:53 Sunny 93 33.9 19 -7.2 7 7 WSW 18 30 29.62 1003 10 16.09344 0 0
3:53 pm 15:53 Sunny 91 32.8 15 -9.4 6 6 WSW 28 44 29.62 1003 10 16.09344 0 0
4:53 pm 16:53 Sunny 90 32.2 11 -11.7 5 5 SSW 22 35 29.62 1003 10 16.09344 0 0
5:53 pm 17:53 Sunny 90 32.2 20 -6.7 8 8 SW 23 37 29.62 1003 10 16.09344 0 0
6:53 pm 18:53 Sunny 89 31.7 21 -6.1 8 8 WSW 16 26 29.62 1003 10 16.09344 0 0
7:53 pm 19:53 Sunny 86 30 24 -4.4 10 10 WSW 10 17 29.65 1004 10 16.09344 0 0
8:53 pm 20:53 Clear 83 28.3 29 -1.7 14 14 W 14 22 29.68 1005 10 16.09344 0 0
9:53 pm 21:53 Clear 82 27.8 23 -5 11 11 WSW 10 17 29.71 1006 10 16.09344 0 0
10:53 pm 22:53 Clear 79 26.1 22 -5.6 12 12 S 8 13 29.74 1007 10 16.09344 0 0
11:53 pm 23:53 Clear 77 25 13 -10.6 9 9 S 6 9 29.74 1007 10 16.09344 0 0

Powered by AerisWeather